Snowfall_Accumulation
0.0 0.0 0.0 0.0 0.0 0.0 0.0 0.0 0.4 0.1 0.1 0.1 1.5 0.7 1.8 1.1 0.1 0.1 0.2 0.1 0.5 1.2 0.8 0.8 1.5 1.2 0.1 0.1 0.1 0.1 0.4 0.2 0.3 0.1 0.2 0.2 0.1 0.1 0.2 0.2 0.2 0.3 0.4 0.3
0.0 0.0 0.0 0.0 0.0 0.0 0.0 0.0 0.0 0.0 0.0 0.0 0.0 0.0 0.0 0.0 0.2 0.3 0.3 0.3 0.5 0.3 0.6 0.5 0.4 0.2 0.0 0.0 0.0 0.0 0.0 0.1 0.0 0.0 0.0 0.1 0.1 0.2 0.1 0.2 0.3 0.5 0.9 1.5
0.1 0.0 0.1 1.8 0.1 0.0 0.0 0.0 0.0 0.2 0.0 0.0 0.0 0.0 0.0 0.0 0.0 0.0 0.1 0.1 0.1 0.1 0.1 0.2 0.1 0.0 0.0 0.0 0.0 0.0 0.0 0.0 0.0 0.0 0.0 0.0 0.0 0.0 0.0 0.0 0.0 0.2 1.0 1.2
0.7 0.2 4.0 0.9 0.0 0.0 0.3 0.0 0.2 0.0 0.0 0.0 0.0 0.0 0.0 0.0 0.0 0.0 0.0 0.0 0.0 0.0 0.0 0.0 0.0 0.0 0.0 0.0 0.0 0.0 0.0 0.0 0.0 0.0 0.0 0.0 0.0 0.0 0.0 0.0 0.0 0.0 0.0 0.1
1.8 0.9 0.1 0.0 0.0 0.0 0.0 0.1 0.0 0.0 0.0 0.0 0.0 0.0 0.0 0.0 0.0 0.0 0.0 0.0 0.0 0.0 0.0 0.0 0.0 0.0 0.0 0.0 0.0 0.0 0.0 0.0 0.0 0.0 0.0 0.0 0.0 0.0 0.0 0.0 0.0 0.0 0.0 0.0
0.7 0.7 1.1 0.0 0.0 0.0 0.0 1.1 0.0 0.0 0.0 0.0 0.0 0.1 0.0 0.0 0.0 0.0 0.0 0.0 0.0 0.0 0.0 0.0 0.1 0.0 0.1 0.9 0.2 0.3 0.1 0.0 0.0 0.0 0.0 0.0 0.0 0.0 0.0 0.0 0.0 0.0 0.0 0.0
0.3 1.3 0.3 0.0 0.0 0.0 0.7 0.3 0.0 0.0 0.0 0.0 0.0 0.0 0.0 0.0 0.0 0.0 0.0 0.0 0.0 0.0 0.0 0.1 0.6 0.3 2.1 3.3 3.7 2.1 0.9 0.0 0.0 0.0 0.0 0.0 0.0 0.0 0.0 0.0 0.0 0.0 0.0 0.0
1.2 1.7 1.5 0.0 0.0 0.2 0.9 0.0 0.0 0.0 0.0 0.0 0.0 0.0 0.0 0.0 0.0 0.0 0.0 0.0 0.0 0.0 0.0 0.1 0.1 1.0 2.5 3.5 3.3 2.2 3.1 2.8 1.7 1.2 0.2 0.0 0.1 0.0 0.0 0.0 0.0 0.1 0.2 0.4
0.1 0.7 0.0 0.0 0.0 0.0 0.0 0.0 0.0 0.0 0.0 0.0 0.0 0.0 0.0 0.0 0.0 0.0 0.0 0.2 0.1 0.1 0.1 0.0 0.1 0.2 1.6 2.6 1.8 2.5 3.1 5.1 4.7 3.4 4.4 1.6 1.3 1.8 1.8 0.3 1.3 1.4 2.9 3.9
0.3 0.0 0.0 0.0 0.0 0.0 0.0 0.0 0.0 0.0 0.0 0.0 0.0 0.0 0.0 0.0 0.0 0.0 0.3 0.6 0.1 0.2 0.3 0.4 0.1 0.1 0.1 0.1 0.0 0.2 1.7 1.6 2.8 5.0 3.4 4.4 3.8 4.0 5.1 6.2 6.7 7.4 7.7 10.2
0.1 0.0 0.0 0.0 0.0 0.0 0.0 0.0 0.0 0.0 0.0 0.0 0.0 0.0 0.0 0.0 0.0 0.0 0.1 0.1 0.2 0.9 1.0 0.7 0.2 0.1 0.0 0.0 0.0 0.1 0.1 0.1 0.1 0.5 1.8 3.2 5.3 10.1 8.9 10.6 11.7 13.4 12.8 11.5
1.8 0.0 0.0 0.0 0.0 0.0 0.0 0.0 0.0 0.0 0.0 0.0 0.0 0.0 0.0 0.0 0.0 0.0 0.0 0.0 0.0 0.1 0.1 0.1 0.0 0.0 0.0 0.0 0.0 0.0 0.1 0.4 0.9 0.8 1.4 2.2 3.3 5.2 nan nan nan nan nan 9.5
0.4 0.0 0.0 0.0 0.0 0.0 0.0 0.0 0.0 0.0 0.0 0.0 0.0 0.0 0.0 0.0 0.0 nan 0.0 0.0 0.0 0.6 0.2 0.9 2.7 1.9 0.1 0.0 0.0 0.7 0.5 0.3 1.3 1.2 1.9 2.7 2.9 4.2 8.9 12.1 nan nan nan nan
0.0 0.0 0.0 0.0 0.4 0.0 0.0 0.0 0.0 0.0 0.0 0.0 0.0 0.0 0.0 0.0 0.0 0.0 0.0 0.0 0.0 0.0 0.1 0.1 0.3 4.1 4.5 2.9 2.9 5.9 4.9 0.8 4.3 5.8 6.4 7.3 8.0 9.3 9.6 11.4 14.7 13.5 nan nan
0.0 0.0 0.0 0.0 0.0 0.0 0.0 0.0 0.0 0.0 0.0 0.0 0.0 0.0 0.0 0.0 0.0 0.0 0.0 0.0 0.0 0.0 0.0 0.1 0.2 1.4 0.7 0.1 0.3 0.8 1.3 3.0 4.0 4.0 3.5 2.9 2.9 3.1 3.3 3.8 5.9 7.8 6.0 3.7
0.0 0.0 0.0 0.0 0.0 0.0 0.0 0.0 0.0 0.0 0.0 0.0 0.0 0.0 0.0 0.0 0.0 0.0 0.0 0.0 0.2 0.6 0.2 4.0 0.7 2.6 2.2 1.5 1.3 0.9 1.6 1.1 1.5 2.2 2.3 2.3 2.0 2.3 2.0 2.2 2.2 3.2 3.9 5.9
0.0 0.0 0.0 0.0 0.0 0.0 0.0 0.0 0.0 0.0 0.0 0.0 0.0 0.0 0.0 0.0 0.0 0.0 0.1 0.2 1.8 3.5 3.9 2.2 7.1 6.4 5.1 4.5 2.2 2.4 2.0 1.7 0.9 1.4 1.5 1.5 1.9 2.1 1.9 2.7 3.3 2.7 5.4 9.0
0.0 0.0 0.0 0.0 0.0 0.0 0.0 0.0 0.0 0.0 0.0 0.0 0.1 1.8 3.4 3.0 0.5 1.0 1.7 1.5 3.5 6.2 5.0 6.7 6.5 6.1 5.5 4.1 1.9 1.0 1.2 1.1 1.1 1.9 1.5 2.6 1.9 1.3 2.2 2.0 1.9 2.8 4.2 3.5
0.0 0.0 0.0 0.0 0.0 0.0 0.0 0.0 0.0 0.0 1.8 1.7 4.8 5.3 5.6 6.6 4.6 7.0 8.0 11.8 13.1 8.2 12.6 8.1 2.1 3.1 2.7 3.4 0.2 0.9 1.3 2.3 1.4 1.2 1.4 5.4 4.7 1.8 3.8 5.2 3.9 5.7 3.4 4.3
0.0 0.0 0.0 0.1 0.2 0.2 0.8 1.4 2.6 4.3 4.9 4.3 9.1 11.2 9.8 14.9 12.3 14.4 10.8 10.5 7.9 7.0 4.6 3.6 2.7 1.3 1.1 0.4 1.4 0.7 1.4 3.2 1.7 3.7 5.1 2.3 7.2 11.0 7.1 7.0 6.1 7.8 14.5 11.3
0.8 1.4 2.1 2.6 4.7 5.8 7.8 9.0 8.0 7.0 9.3 11.4 11.2 14.4 15.1 11.1 11.1 12.6 8.4 3.0 5.1 4.0 1.3 0.7 0.6 0.8 0.3 0.3 0.4 2.2 4.0 6.5 7.1 4.6 4.9 11.3 15.4 11.6 12.6 13.7 12.8 15.2 17.9 14.0
1.5 2.5 4.8 4.6 3.0 3.8 4.9 4.3 2.5 7.2 8.1 11.6 15.2 16.6 14.0 7.2 9.9 8.4 8.8 2.8 1.8 2.5 1.2 1.1 0.6 2.9 1.9 4.6 1.0 5.8 2.6 3.0 5.2 5.6 6.9 11.0 12.2 18.1 19.1 16.5 16.2 17.7 17.3 18.0
1.5 1.4 2.2 3.7 2.8 2.1 2.6 2.9 7.5 6.1 10.5 10.6 12.1 8.1 4.6 2.2 2.1 3.2 3.6 0.3 0.5 3.0 0.5 1.8 4.1 5.1 5.5 8.0 7.4 8.7 8.9 9.4 9.7 8.8 9.6 14.9 14.3 23.4 14.2 13.8 15.3 15.9 21.4 14.6
1.6 1.4 1.9 1.8 2.0 0.7 1.3 2.2 1.3 1.7 7.7 4.8 6.4 9.3 2.6 5.6 6.1 0.6 0.6 4.8 5.0 12.5 10.5 4.8 7.6 5.8 6.4 11.4 11.7 13.4 11.9 13.5 14.2 16.5 8.2 8.9 22.3 17.7 14.3 21.0 13.8 16.4 17.2 14.8
2.4 2.7 2.4 3.1 1.3 2.3 0.9 1.1 1.2 1.3 1.2 0.7 0.6 0.4 0.3 0.6 4.2 1.8 3.2 3.3 5.8 3.9 5.0 6.1 6.2 7.1 14.6 15.4 14.8 15.5 15.5 14.2 15.8 18.4 13.7 19.0 17.3 25.1 22.2 18.4 22.2 21.5 22.0 18.8
1.5 2.0 2.0 1.6 1.4 1.2 1.1 1.1 1.5 1.5 1.0 3.0 1.6 7.5 5.2 2.7 2.2 2.2 3.9 5.2 3.1 5.6 3.7 11.0 17.2 17.4 16.3 12.2 14.2 14.9 11.9 8.6 13.2 13.5 16.2 15.8 15.4 12.6 16.1 15.0 20.8 24.4 29.0 30.5
1.9 0.7 1.4 1.3 1.0 0.9 0.8 0.7 1.6 2.3 3.0 5.3 5.0 4.7 3.2 6.3 7.8 5.5 7.4 10.2 10.4 12.4 12.7 15.0 13.9 10.3 9.3 14.8 12.7 11.8 11.8 12.1 10.7 10.7 20.2 22.3 21.2 27.3 25.7 25.8 29.0 29.1 26.1 23.9
Water_Equivalent
0.00 0.00 0.00 0.00 0.00 0.00 0.00 0.00 0.07 0.02 0.02 0.03 0.53 0.21 0.60 0.40 0.03 0.03 0.05 0.03 0.12 0.28 0.17 0.22 0.54 0.37 0.03 0.05 0.02 0.05 0.16 0.06 0.07 0.02 0.05 0.04 0.03 0.02 0.07 0.05 0.04 0.07 0.10 0.09
0.00 0.00 0.00 0.00 0.00 0.00 0.00 0.00 0.00 0.01 0.00 0.00 0.00 0.00 0.00 0.00 0.07 0.08 0.07 0.06 0.09 0.07 0.11 0.09 0.06 0.05 0.00 0.00 0.01 0.00 0.01 0.02 0.01 0.01 0.01 0.03 0.03 0.03 0.03 0.04 0.07 0.09 0.17 0.32
0.02 0.00 0.02 0.32 0.03 0.01 0.00 0.00 0.00 0.05 0.00 0.01 0.00 0.00 0.00 0.00 0.00 0.00 0.02 0.01 0.02 0.02 0.02 0.04 0.02 0.00 0.00 0.00 0.00 0.00 0.00 0.00 0.00 0.00 0.00 0.00 0.00 0.00 0.00 0.01 0.01 0.05 0.24 0.25
0.16 0.03 0.57 0.21 0.00 0.00 0.10 0.00 0.06 0.00 0.01 0.00 0.00 0.00 0.00 0.00 0.00 0.00 0.00 0.00 0.00 0.00 0.00 0.00 0.00 0.00 0.00 0.00 0.00 0.00 0.00 0.00 0.00 0.00 0.00 0.00 0.00 0.00 0.00 0.00 0.00 0.00 0.01 0.02
0.37 0.18 0.01 0.00 0.00 0.00 0.00 0.02 0.00 0.00 0.00 0.00 0.00 0.00 0.00 0.00 0.00 0.00 0.00 0.00 0.00 0.00 0.00 0.00 0.00 0.00 0.00 0.00 0.00 0.00 0.00 0.00 0.00 0.00 0.00 0.00 0.00 0.00 0.00 0.00 0.00 0.00 0.00 0.00
0.14 0.09 0.20 0.00 0.00 0.00 0.00 0.26 0.00 0.00 0.00 0.00 0.00 0.01 0.00 0.00 0.00 0.00 0.00 0.00 0.00 0.00 0.00 0.01 0.03 0.00 0.05 0.31 0.04 0.07 0.02 0.00 0.00 0.00 0.00 0.00 0.00 0.00 0.00 0.00 0.00 0.00 0.00 0.00
0.08 0.22 0.07 0.00 0.00 0.00 0.15 0.07 0.00 0.00 0.00 0.00 0.00 0.00 0.00 0.00 0.00 0.00 0.00 0.00 0.00 0.00 0.00 0.02 0.21 0.11 0.73 1.09 1.04 0.63 0.28 0.01 0.01 0.00 0.00 0.00 0.00 0.00 0.00 0.00 0.00 0.00 0.00 0.00
0.22 0.27 0.21 0.00 0.00 0.04 0.26 0.00 0.00 0.00 0.00 0.00 0.00 0.00 0.00 0.00 0.00 0.00 0.00 0.00 0.00 0.00 0.00 0.02 0.02 0.31 0.73 0.93 1.03 0.75 1.01 0.78 0.40 0.30 0.05 0.00 0.01 0.01 0.00 0.00 0.00 0.02 0.04 0.12
0.01 0.17 0.00 0.00 0.00 0.00 0.00 0.00 0.00 0.00 0.00 0.00 0.00 0.00 0.00 0.00 0.00 0.00 0.01 0.06 0.01 0.02 0.01 0.01 0.01 0.05 0.34 0.68 0.52 0.73 0.80 1.16 1.15 0.84 1.08 0.39 0.29 0.37 0.38 0.07 0.28 0.28 0.59 0.79
0.05 0.00 0.00 0.00 0.00 0.00 0.00 0.00 0.00 0.00 0.00 0.00 0.00 0.00 0.00 0.00 0.00 0.00 0.08 0.13 0.03 0.03 0.07 0.07 0.02 0.02 0.03 0.02 0.01 0.05 0.41 0.37 0.64 1.00 0.83 1.13 1.05 1.01 1.07 1.11 1.20 1.45 1.45 1.73
0.02 0.00 0.00 0.00 0.00 0.00 0.00 0.00 0.00 0.00 0.00 0.00 0.00 0.00 0.00 0.00 0.00 0.00 0.02 0.01 0.05 0.16 0.16 0.12 0.04 0.01 0.01 0.01 0.00 0.01 0.03 0.03 0.03 0.12 0.38 0.72 1.28 2.16 2.06 2.34 2.15 2.21 2.12 2.03
0.51 0.01 0.00 0.00 0.00 0.00 0.00 0.00 0.00 0.00 0.00 0.00 0.00 0.00 0.00 0.00 0.00 0.00 0.00 0.00 0.00 0.01 0.01 0.01 0.00 0.00 0.00 0.00 0.01 0.00 0.01 0.09 0.21 0.19 0.30 0.47 0.70 1.09 nan nan nan nan nan 2.25
0.13 0.00 0.00 0.00 0.00 0.00 0.00 0.00 0.00 0.00 0.00 0.00 0.00 0.00 0.00 0.00 0.00 nan 0.00 0.00 0.00 0.13 0.05 0.18 0.51 0.36 0.03 0.01 0.01 0.15 0.11 0.07 0.33 0.30 0.44 0.55 0.59 0.78 1.50 2.23 nan nan nan nan
0.00 0.00 0.00 0.00 0.11 0.00 0.00 0.00 0.00 0.00 0.00 0.00 0.00 0.00 0.00 0.00 0.00 0.00 0.00 0.00 0.00 0.00 0.01 0.02 0.06 0.63 0.86 0.63 0.63 1.10 1.04 0.28 1.10 1.42 1.51 1.66 1.76 1.92 1.83 2.00 2.26 2.05 nan nan
0.00 0.00 0.00 0.00 0.00 0.00 0.00 0.00 0.00 0.00 0.00 0.00 0.00 0.00 0.00 0.00 0.00 0.00 0.00 0.00 0.00 0.00 0.01 0.01 0.04 0.22 0.14 0.03 0.07 0.18 0.32 0.66 0.83 0.82 0.77 0.64 0.67 0.67 0.70 0.74 1.00 1.13 0.89 0.75
0.00 0.00 0.00 0.00 0.00 0.00 0.00 0.00 0.00 0.00 0.00 0.00 0.00 0.00 0.00 0.00 0.00 0.00 0.00 0.00 0.04 0.09 0.03 0.68 0.11 0.37 0.36 0.30 0.28 0.20 0.37 0.35 0.38 0.49 0.51 0.51 0.45 0.49 0.41 0.44 0.41 0.54 0.58 0.80
0.00 0.00 0.00 0.00 0.00 0.00 0.00 0.00 0.00 0.00 0.00 0.00 0.00 0.00 0.00 0.00 0.00 0.00 0.02 0.03 0.29 0.54 0.55 0.30 0.82 0.78 0.64 0.63 0.39 0.49 0.39 0.37 0.29 0.30 0.32 0.31 0.40 0.41 0.35 0.48 0.57 0.46 0.86 1.45
0.00 0.00 0.00 0.00 0.00 0.00 0.00 0.00 0.00 0.00 0.00 0.00 0.02 0.38 0.69 0.58 0.07 0.13 0.22 0.22 0.49 0.77 0.60 0.76 0.72 0.71 0.65 0.52 0.29 0.21 0.25 0.24 0.25 0.40 0.32 0.54 0.39 0.30 0.44 0.39 0.38 0.49 0.71 0.64
0.00 0.00 0.00 0.00 0.00 0.00 0.00 0.00 0.00 0.00 0.37 0.32 0.88 0.84 0.90 1.05 0.64 0.91 1.00 1.57 1.75 0.87 1.32 0.86 0.70 0.48 0.32 0.39 0.05 0.20 0.31 0.56 0.34 0.24 0.30 1.73 0.93 0.38 0.70 0.95 0.73 1.03 0.60 0.66
0.00 0.00 0.00 0.02 0.03 0.04 0.14 0.23 0.45 0.65 0.74 0.65 1.45 1.70 1.29 1.90 1.74 1.90 1.33 1.14 0.91 0.93 0.56 0.43 0.29 0.16 0.15 0.10 0.45 0.16 0.36 0.80 0.41 0.83 1.10 0.50 1.38 2.01 1.23 2.25 1.02 1.32 2.44 1.82
0.17 0.29 0.38 0.45 0.78 1.07 1.43 1.58 1.24 0.91 1.22 1.66 1.75 2.06 1.95 1.55 1.52 1.80 1.06 0.45 0.61 0.45 0.18 0.22 0.12 0.14 0.06 0.05 0.11 0.53 0.97 1.49 1.58 0.97 1.02 2.21 2.91 2.15 2.10 2.46 2.26 2.72 3.10 2.35
0.27 0.42 0.81 0.72 0.44 0.56 0.74 0.64 0.37 1.04 1.11 1.62 2.26 2.47 1.93 0.90 1.21 1.03 1.26 0.38 0.28 0.81 0.24 0.22 0.13 0.95 0.60 1.50 0.25 1.42 0.62 0.73 1.11 1.13 1.31 2.10 2.15 3.12 3.15 2.71 2.62 3.04 3.06 3.17
0.25 0.22 0.34 0.55 0.45 0.30 0.36 0.40 1.21 0.99 1.61 1.54 1.77 1.20 0.74 0.37 0.35 0.55 0.59 0.04 0.12 0.97 0.15 0.44 1.32 1.68 1.82 1.83 1.77 2.02 1.99 2.00 1.96 1.68 1.80 2.76 2.53 4.01 2.07 2.03 2.39 2.50 3.59 2.34
0.25 0.21 0.28 0.27 0.28 0.10 0.18 0.29 0.17 0.21 1.24 0.71 0.99 1.47 0.42 1.00 1.36 0.15 0.15 1.60 1.65 3.55 2.55 1.24 2.10 1.92 2.10 2.42 2.32 2.63 2.38 2.59 2.55 2.81 1.34 2.76 3.92 2.76 2.14 3.17 1.89 2.45 2.70 2.35
0.35 0.40 0.36 0.44 0.17 0.35 0.12 0.14 0.16 0.17 0.15 0.11 0.08 0.06 0.06 0.17 0.98 0.44 0.84 0.87 1.88 1.11 1.27 1.94 2.05 2.35 2.93 3.04 2.75 2.73 2.68 2.27 2.55 2.98 2.08 3.19 2.87 4.20 3.59 2.66 3.08 3.24 3.24 2.84
0.21 0.37 0.34 0.22 0.23 0.23 0.22 0.21 0.27 0.26 0.22 0.66 0.37 1.73 1.21 0.65 0.56 0.55 0.91 1.56 0.72 1.79 0.85 2.53 3.48 3.46 3.19 2.19 2.51 2.56 1.89 1.35 1.97 1.94 2.29 2.25 2.25 1.79 2.21 2.03 2.83 3.62 4.53 4.98
0.32 0.17 0.27 0.24 0.18 0.18 0.17 0.15 0.35 0.49 0.80 1.21 1.08 1.08 0.70 1.31 1.69 1.38 2.18 2.17 2.15 2.46 2.52 3.14 2.74 2.68 1.59 2.62 2.14 1.85 1.74 1.81 2.81 1.46 2.62 3.06 2.86 3.99 3.56 3.64 4.23 4.63 3.86 3.32
SL_Ratio
nan nan nan nan nan nan 4.4 nan 5.3 4.4 3.9 3.6 2.8 3.1 3.0 2.9 3.0 3.0 3.1 3.7 4.1 4.1 4.8 3.8 2.9 3.2 3.2 3.0 3.2 2.7 2.6 3.7 4.0 3.0 3.3 4.0 4.7 4.1 3.2 3.3 3.8 4.0 3.8 3.7
nan nan nan nan nan nan nan 5.0 6.7 3.6 10.0 nan nan nan nan nan 3.4 3.8 3.9 4.6 5.1 5.0 5.5 5.8 5.9 4.7 10.0 2.5 2.7 4.0 2.8 3.7 2.7 3.2 3.5 3.9 4.4 4.9 4.8 4.2 4.2 5.0 5.4 4.7
5.8 nan 4.3 5.7 4.1 3.2 nan nan nan 4.2 4.3 3.0 nan nan nan nan nan 4.0 4.2 4.3 4.8 5.0 5.2 5.6 5.9 6.2 nan nan nan nan nan nan nan nan nan nan nan nan nan 3.7 3.0 4.1 4.3 4.8
4.6 4.9 7.1 4.3 nan nan 3.1 2.0 3.2 2.9 3.3 0.0 nan nan nan nan nan nan nan nan nan nan nan 5.0 nan nan nan nan nan nan nan nan nan nan nan nan nan nan nan nan nan nan 3.9 4.1
4.8 5.1 4.4 nan nan 3.3 3.8 4.6 nan nan nan nan nan nan 2.5 nan nan nan nan nan nan nan nan 0.0 0.0 nan nan nan nan nan nan nan nan nan nan nan nan nan nan nan nan nan nan nan
4.7 8.0 5.4 5.0 nan nan nan 4.1 nan nan nan nan nan 5.9 0.0 nan nan nan nan nan nan nan nan 2.9 2.7 3.3 2.6 2.9 3.5 4.4 4.4 4.5 nan nan nan nan nan nan nan nan nan nan nan nan
4.3 5.6 4.5 nan nan nan 4.8 4.8 nan nan nan nan nan nan nan nan nan nan nan nan nan nan 4.0 3.6 2.7 2.6 2.9 3.0 3.5 3.3 3.1 3.6 3.7 nan 5.4 nan nan nan nan nan nan nan nan nan
5.5 6.5 6.9 nan nan 6.1 3.7 nan nan nan nan nan nan nan nan nan nan nan nan 3.3 nan nan nan 3.8 3.5 3.3 3.5 3.8 3.2 2.9 3.0 3.6 4.3 4.1 4.0 4.3 4.2 4.2 nan nan 4.0 4.1 4.1 3.8
4.1 4.3 nan nan nan nan nan nan nan nan nan nan nan nan nan nan nan nan 3.2 3.6 3.6 4.1 4.4 3.9 4.3 3.9 4.8 3.9 3.4 3.5 3.9 4.4 4.1 4.0 4.0 4.2 4.5 4.8 4.6 4.8 4.6 4.9 4.9 4.9
6.0 nan nan nan nan nan nan nan nan nan nan nan nan nan nan nan nan nan 3.8 4.2 4.1 4.5 5.2 5.5 4.6 4.4 4.4 4.2 3.8 3.6 4.0 4.4 4.4 5.0 4.1 3.9 3.7 4.0 4.8 5.6 5.6 5.1 5.3 5.9
2.6 3.3 nan nan nan nan nan nan nan nan nan nan nan nan nan nan nan nan 4.1 3.8 4.1 5.9 6.3 5.8 4.7 4.5 4.4 4.2 4.5 4.2 4.0 4.3 4.7 4.4 4.8 4.5 4.1 4.7 4.3 4.5 5.4 6.0 6.0 5.7
3.6 3.3 0.0 0.0 nan nan nan nan nan nan nan nan nan nan nan nan nan nan nan nan nan 4.4 4.8 4.9 5.0 5.0 5.0 3.3 5.0 4.3 4.5 4.4 4.3 4.3 4.6 4.7 4.7 4.8 nan nan nan nan nan 4.2
3.1 2.5 nan 0.0 nan nan nan nan nan nan nan nan nan nan nan nan nan nan nan nan nan 4.6 4.4 5.3 5.3 5.3 4.3 4.2 4.6 4.5 4.7 4.2 3.7 3.9 4.4 4.9 5.0 5.4 5.9 5.4 nan nan nan nan
nan 0.0 3.3 2.5 3.6 nan nan nan nan nan nan nan nan nan nan nan nan nan nan nan nan nan 4.4 4.3 4.6 6.6 5.2 4.5 4.5 5.4 4.7 3.0 3.9 4.1 4.3 4.4 4.5 4.8 5.2 5.7 6.5 6.6 nan nan
nan nan nan nan nan nan nan nan nan nan nan nan nan nan nan nan nan nan nan nan nan nan 5.0 4.4 4.6 6.3 4.8 4.1 4.3 4.4 4.0 4.5 4.8 4.9 4.6 4.5 4.4 4.6 4.8 5.1 5.9 7.0 6.8 4.9
nan nan nan nan nan nan nan nan nan nan nan nan nan nan nan nan nan nan nan nan 5.0 6.4 6.1 5.9 6.4 7.0 6.1 4.9 4.7 4.8 4.5 3.2 4.0 4.5 4.5 4.5 4.4 4.6 4.9 5.0 5.3 5.9 6.7 7.4
nan nan nan nan nan nan nan nan nan nan nan nan nan nan nan nan nan 5.3 5.9 6.1 6.0 6.5 7.2 7.6 8.7 8.2 8.0 7.2 5.6 5.0 5.1 4.7 3.0 4.6 4.7 4.7 4.8 5.1 5.3 5.5 5.8 5.9 6.2 6.2
nan nan nan nan nan nan nan nan nan nan nan nan 4.8 4.6 5.0 5.2 6.8 7.5 7.6 7.0 7.3 8.0 8.3 8.8 9.0 8.5 8.6 7.9 6.6 4.7 4.6 4.5 4.3 4.7 4.6 4.8 4.9 4.5 5.1 5.1 5.1 5.6 5.9 5.6
nan nan nan nan nan nan nan nan nan 10.0 4.9 5.3 5.5 6.3 6.2 6.3 7.2 7.7 8.0 7.5 7.5 9.5 9.6 9.4 3.0 6.5 8.3 8.7 4.6 4.4 4.3 4.0 4.2 4.9 4.7 3.1 5.0 4.8 5.4 5.4 5.4 5.5 5.6 6.5
nan nan 3.8 4.3 4.5 4.9 6.0 6.1 5.7 6.6 6.7 6.6 6.3 6.6 7.6 7.9 7.1 7.6 8.1 9.2 8.7 7.5 8.3 8.4 9.2 7.8 7.7 4.0 3.2 4.5 4.1 4.0 4.2 4.4 4.6 4.7 5.2 5.5 5.8 3.1 5.9 5.9 5.9 6.2
4.7 4.9 5.4 5.8 6.0 5.4 5.5 5.7 6.4 7.7 7.6 6.9 6.4 7.0 7.8 7.2 7.3 7.0 7.9 6.7 8.4 8.8 7.4 3.1 5.5 5.4 4.9 4.6 3.6 4.2 4.1 4.3 4.5 4.7 4.8 5.1 5.3 5.4 6.0 5.5 5.7 5.6 5.8 6.0
5.5 6.0 5.9 6.4 6.8 6.8 6.6 6.6 6.9 6.9 7.3 7.1 6.7 6.7 7.2 8.1 8.2 8.2 7.0 7.4 6.3 3.0 4.9 4.9 4.9 3.1 3.1 3.0 3.8 4.1 4.1 4.0 4.7 5.0 5.3 5.2 5.7 5.8 6.1 6.1 6.2 5.8 5.7 5.7
6.0 6.3 6.4 6.7 6.4 7.2 7.3 7.1 6.2 6.1 6.5 6.9 6.9 6.8 6.2 6.0 5.9 5.8 6.2 7.9 4.4 3.1 3.6 4.0 3.1 3.0 3.0 4.4 4.2 4.3 4.5 4.7 5.0 5.2 5.3 5.4 5.7 5.8 6.8 6.8 6.4 6.3 6.0 6.2
6.4 6.5 6.9 6.9 7.2 7.4 7.6 7.7 7.8 8.0 6.2 6.8 6.5 6.3 6.3 5.6 4.5 4.4 4.0 3.0 3.0 3.5 4.1 3.9 3.6 3.0 3.0 4.7 5.1 5.1 5.0 5.2 5.6 5.9 6.1 3.2 5.7 6.4 6.7 6.6 7.3 6.7 6.4 6.3
6.7 6.8 6.9 7.0 7.4 6.5 7.5 7.7 7.8 7.9 8.2 6.6 7.5 6.9 5.4 3.8 4.3 4.1 3.8 3.8 3.1 3.5 4.0 3.1 3.0 3.0 5.0 5.1 5.4 5.7 5.8 6.2 6.2 6.2 6.6 6.0 6.0 6.0 6.2 6.9 7.2 6.6 6.8 6.6
6.8 5.6 5.9 7.4 6.0 5.4 5.3 5.4 5.8 5.5 4.8 4.6 4.4 4.3 4.3 4.1 4.0 4.1 4.2 3.4 4.3 3.1 4.3 4.3 4.9 5.0 5.1 5.6 5.7 5.8 6.3 6.4 6.7 7.0 7.1 7.0 6.9 7.0 7.3 7.4 7.3 6.7 6.4 6.1
5.9 4.1 5.4 5.4 5.3 5.0 5.0 4.6 4.5 4.8 3.8 4.4 4.6 4.4 4.5 4.8 4.6 4.0 3.4 4.7 4.8 5.0 5.1 4.8 5.1 3.8 5.8 5.7 5.9 6.4 6.8 6.7 3.8 7.3 7.7 7.3 7.4 6.8 7.2 7.1 6.9 6.3 6.8 7.2